Blakely, GA

6:38 AM EST on December 13, 2017 (GMT -0500)
Blakely

Weather History for KBIJ - December, 2013

Change the Weather History Date:

Saturday, December 7, 2013

  Actual Average (KDHN) Record (KDHN)
Temperature  
Mean Temperature 60 °F 53 °F  
Max Temperature 69 °F 64 °F 81 °F (1951)
Min Temperature 51 °F 41 °F 26 °F (1954)
Degree Days  
Heating Degree Days 5 12  
Month to date heating degree days 82  
Since 1 July heating degree days 359  
Growing Degree Days 10 (Base 50)    
Moisture  
Dew Point 58 °F    
Average Humidity 99    
Maximum Humidity 100    
Minimum Humidity 88    
Precipitation  
Precipitation 0.00 in 0.18 in 2.03 in (1948)
Month to date precipitation 1.32  
Year to date precipitation 50.90  
Sea Level Pressure  
Sea Level Pressure 30.21 in    
Wind  
Wind Speed 5 mph (NNW)    
Max Wind Speed 8 mph    
Max Gust Speed -    
Visibility 9 miles    
Events Rain    
T = Trace of Precipitation, MM = Missing Value Source: NWS Daily Summary

Daily Weather History Graph

Daily Weather History Graph

Search for Another Location

Airport or City:

Trip Planner

Search our weather history database for the weather conditions in past years. The results will help you decide how hot, cold, wet, or windy it might be!

Date:

Astronomy

Dec. 07, 2013 Rise Set
Actual Time 7:25 AM EST 5:36 PM EST
Civil Twilight 6:59 AM EST 6:03 PM EST
Nautical Twilight 6:29 AM EST 6:33 PM EST
Astronomical Twilight 5:59 AM EST 7:02 PM EST
Moon 11:23 AM EST (12/7) 11:02 PM EST (12/7)
Length of Visible Light 11h 04m
Length of Day
10h 10m
Waxing Crescent, 29% of the Moon is Illuminated
Dec 7
Waxing Crescent
Dec 9
First Quarter
Dec 17
Full
Dec 25
Last Quarter
Jan 1
New

Hourly Weather History & Observations

Time (EST) Temp. Dew Point Humidity Pressure Visibility Wind Dir Wind Speed Gust Speed Precip Events Conditions
12:15 AM 69.8 °F 69.8 °F 100% 30.11 in 10.0 mi SSW 5.8 mph - N/A   Overcast
12:35 AM 69.8 °F 69.8 °F 100% 30.11 in 10.0 mi SW 4.6 mph - N/A   Overcast
12:55 AM 69.8 °F 69.8 °F 100% 30.11 in 7.0 mi SSW 6.9 mph - N/A   Overcast
1:15 AM 69.8 °F 69.8 °F 100% 30.11 in 7.0 mi SSW 5.8 mph - N/A Rain Rain
1:35 AM 69.8 °F 69.8 °F 100% 30.11 in 7.0 mi South 4.6 mph - N/A   Overcast
1:55 AM 69.8 °F 69.8 °F 100% 30.11 in 7.0 mi SSW 6.9 mph - N/A   Overcast
2:15 AM 69.8 °F 69.8 °F 100% 30.10 in 7.0 mi SSW 6.9 mph - N/A   Overcast
2:35 AM 69.8 °F 69.8 °F 100% 30.11 in 7.0 mi SW 5.8 mph - N/A   Overcast
2:55 AM 69.8 °F 69.8 °F 100% 30.11 in 7.0 mi SW 3.5 mph - N/A   Overcast
3:15 AM 69.8 °F 69.8 °F 100% 30.12 in 7.0 mi SSW 3.5 mph - N/A   Overcast
3:35 AM 69.8 °F 69.8 °F 100% 30.12 in 7.0 mi WSW 4.6 mph - N/A   Overcast
3:55 AM 68.0 °F 68.0 °F 100% 30.13 in 10.0 mi NNW 4.6 mph - N/A   Overcast
4:15 AM 66.2 °F 66.2 °F 100% 30.13 in 10.0 mi Calm Calm - N/A   Scattered Clouds
4:35 AM 64.4 °F 64.4 °F 100% 30.13 in 10.0 mi NNW 3.5 mph - N/A   Scattered Clouds
4:55 AM 64.4 °F 64.4 °F 100% 30.13 in 10.0 mi Calm Calm - N/A   Mostly Cloudy
5:20 AM 64.4 °F 64.4 °F 100% 30.13 in 7.0 mi Calm Calm - N/A   Scattered Clouds
5:35 AM 64.4 °F 64.4 °F 100% 30.14 in 10.0 mi NNW 4.6 mph - N/A   Mostly Cloudy
5:55 AM 62.6 °F 62.6 °F 100% 30.14 in 10.0 mi North 4.6 mph - N/A   Overcast
6:15 AM 62.6 °F 62.6 °F 100% 30.15 in 10.0 mi North 3.5 mph - N/A   Overcast
6:35 AM 62.6 °F 62.6 °F 100% 30.17 in 10.0 mi Calm Calm - N/A   Overcast
6:55 AM 62.6 °F 62.6 °F 100% 30.18 in 10.0 mi NNW 4.6 mph - N/A   Overcast
7:15 AM 62.6 °F 62.6 °F 100% 30.19 in 10.0 mi NW 3.5 mph - N/A   Overcast
7:35 AM 60.8 °F 60.8 °F 100% 30.20 in 5.0 mi NW 5.8 mph - N/A   Overcast
7:55 AM 59.0 °F 59.0 °F 100% 30.21 in 4.0 mi North 5.8 mph - N/A   Overcast
8:15 AM 59.0 °F 59.0 °F 100% 30.22 in 7.0 mi NNW 5.8 mph - N/A   Overcast
8:35 AM 59.0 °F 59.0 °F 100% 30.22 in 10.0 mi NNW 4.6 mph - N/A   Overcast
8:55 AM 57.2 °F 57.2 °F 100% 30.22 in 10.0 mi NNW 6.9 mph - N/A   Overcast
9:15 AM 55.4 °F 55.4 °F 100% 30.23 in 10.0 mi North 5.8 mph - N/A   Overcast
9:35 AM 55.4 °F 55.4 °F 100% 30.24 in 10.0 mi NW 4.6 mph - N/A   Overcast
9:55 AM 55.4 °F 55.4 °F 100% 30.25 in 2.5 mi NW 4.6 mph - N/A Rain Light Rain
10:15 AM 55.4 °F 55.4 °F 100% 30.26 in 7.0 mi NNW 4.6 mph - N/A   Overcast
10:35 AM 55.4 °F 55.4 °F 100% 30.26 in 10.0 mi NNW 5.8 mph - N/A   Overcast
10:55 AM 55.4 °F 55.4 °F 100% 30.26 in 10.0 mi NNW 6.9 mph - N/A   Overcast
11:15 AM 55.4 °F 55.4 °F 100% 30.27 in 10.0 mi NW 5.8 mph - N/A   Overcast
11:35 AM 55.4 °F 55.4 °F 100% 30.26 in 10.0 mi NW 4.6 mph - N/A   Overcast
11:55 AM 55.4 °F 55.4 °F 100% 30.26 in 10.0 mi NW 5.8 mph - N/A   Overcast
12:15 PM 55.4 °F 55.4 °F 100% 30.25 in 10.0 mi NW 3.5 mph - N/A   Overcast
12:35 PM 55.4 °F 55.4 °F 100% 30.24 in 10.0 mi NW 4.6 mph - N/A   Overcast
12:55 PM 57.2 °F 55.4 °F 94% 30.23 in 10.0 mi NNW 3.5 mph - N/A   Overcast
1:15 PM 57.2 °F 55.4 °F 94% 30.22 in 10.0 mi NW 4.6 mph - N/A   Overcast
1:35 PM 57.2 °F 55.4 °F 94% 30.22 in 10.0 mi NW 6.9 mph - N/A   Overcast
1:50 PM 59.0 °F 55.4 °F 88% 30.22 in 10.0 mi North 3.5 mph - N/A   Overcast
2:15 PM 59.0 °F 55.4 °F 88% 30.21 in 10.0 mi NW 4.6 mph - N/A   Overcast
2:35 PM 59.0 °F 55.4 °F 88% 30.21 in 10.0 mi WNW 5.8 mph - N/A   Overcast
2:55 PM 59.0 °F 55.4 °F 88% 30.21 in 10.0 mi NW 5.8 mph - N/A   Overcast
3:15 PM 57.2 °F 53.6 °F 88% 30.21 in 10.0 mi NW 8.1 mph - N/A   Overcast
3:35 PM 55.4 °F 53.6 °F 94% 30.22 in 10.0 mi NW 4.6 mph - N/A   Overcast
3:55 PM 53.6 °F 53.6 °F 100% 30.22 in 10.0 mi NW 4.6 mph - N/A   Overcast
4:15 PM 53.6 °F 53.6 °F 100% 30.22 in 10.0 mi NNW 4.6 mph - N/A   Overcast
4:35 PM 53.6 °F 53.6 °F 100% 30.22 in 10.0 mi North 6.9 mph - N/A   Overcast
4:55 PM 53.6 °F 53.6 °F 100% 30.22 in 10.0 mi North 4.6 mph - N/A   Overcast
5:15 PM 53.6 °F 53.6 °F 100% 30.22 in 10.0 mi North 5.8 mph - N/A   Overcast
5:35 PM 53.6 °F 53.6 °F 100% 30.23 in 10.0 mi NNW 3.5 mph - N/A   Overcast
5:55 PM 53.6 °F 51.8 °F 94% 30.23 in 10.0 mi North 4.6 mph - N/A   Overcast
6:20 PM 53.6 °F 51.8 °F 94% 30.24 in 10.0 mi NNW 4.6 mph - N/A   Overcast
6:35 PM 53.6 °F 51.8 °F 94% 30.25 in 10.0 mi NNW 3.5 mph - N/A   Overcast
6:55 PM 51.8 °F 51.8 °F 100% 30.25 in 10.0 mi North 3.5 mph - N/A   Overcast
7:15 PM 51.8 °F 51.8 °F 100% 30.25 in 10.0 mi North 6.9 mph - N/A   Overcast
7:35 PM 51.8 °F 51.8 °F 100% 30.25 in 10.0 mi NNE 5.8 mph - N/A   Overcast
7:55 PM 51.8 °F 51.8 °F 100% 30.26 in 10.0 mi NNE 3.5 mph - N/A   Overcast
8:15 PM 51.8 °F 51.8 °F 100% 30.26 in 10.0 mi North 4.6 mph - N/A   Overcast
8:40 PM 51.8 °F 51.8 °F 100% 30.26 in 10.0 mi NNE 4.6 mph - N/A   Overcast
8:55 PM 51.8 °F 51.8 °F 100% 30.26 in 10.0 mi NNE 5.8 mph - N/A   Overcast
9:15 PM 51.8 °F 51.8 °F 100% 30.26 in 10.0 mi NNE 4.6 mph - N/A   Overcast
9:35 PM 51.8 °F 51.8 °F 100% 30.26 in 10.0 mi NE 5.8 mph - N/A   Overcast
9:55 PM 51.8 °F 51.8 °F 100% 30.26 in 10.0 mi Calm Calm - N/A   Overcast
10:15 PM 51.8 °F 51.8 °F 100% 30.26 in 10.0 mi Calm Calm - N/A   Overcast
10:35 PM 51.8 °F 51.8 °F 100% 30.26 in 10.0 mi Calm Calm - N/A   Overcast
10:55 PM 51.8 °F 51.8 °F 100% 30.26 in 10.0 mi NNE 4.6 mph - N/A   Overcast
11:15 PM 51.8 °F 51.8 °F 100% 30.26 in 10.0 mi NNE 3.5 mph - N/A   Overcast
11:35 PM 51.8 °F 51.8 °F 100% 30.25 in 7.0 mi NNE 3.5 mph - N/A   Overcast
11:55 PM 51.8 °F 51.8 °F 100% 30.25 in 5.0 mi NNE 3.5 mph - N/A   Overcast